H1 CPF 2 NER 2021 4 6 9 096 01 glonass134 H2 1407501 9134 40315 2021 4 6 0 0 0 2021 4 9 23 45 0 900 1 1 0 0 0 1 H9 10 0 59310 0.00000 0 4646689.652 -13442374.827 -21144885.547 10 0 59310 900.00000 0 5953771.009 -11108969.578 -22153015.059 10 0 59310 1800.00000 0 7476006.406 -8792764.582 -22729890.826 10 0 59310 2700.00000 0 9184044.482 -6555392.826 -22864533.833 10 0 59310 3600.00000 0 11038032.489 -4452694.831 -22554587.061 10 0 59310 4500.00000 0 12989127.812 -2532590.169 -21806341.091 10 0 59310 5400.00000 0 14981399.260 -833297.872 -20634591.434 10 0 59310 6300.00000 0 16954038.215 618022.122 -19062331.811 10 0 59310 7200.00000 0 18843786.900 1806152.398 -17120290.695 10 0 59310 8100.00000 0 20587482.495 2728192.441 -14846321.178 10 0 59310 9000.00000 0 22124611.347 3393411.361 -12284656.738 10 0 59310 9900.00000 0 23399767.401 3822587.884 -9485047.891 10 0 59310 10800.00000 0 24364913.362 4046867.836 -6501796.597 10 0 59310 11700.00000 0 24981351.429 4106189.067 -3392707.042 10 0 59310 12600.00000 0 25221322.612 4047341.366 -217972.795 10 0 59310 13500.00000 0 25069169.136 3921743.808 2960978.673 10 0 59310 14400.00000 0 24522012.424 3783033.303 6082662.598 10 0 59310 15300.00000 0 23589919.101 3684565.657 9086712.720 10 0 59310 16200.00000 0 22295548.427 3676933.817 11915034.670 10 0 59310 17100.00000 0 20673295.711 3805607.149 14512915.819 10 0 59310 18000.00000 0 18767966.840 4108790.455 16830071.246 10 0 59310 18900.00000 0 16633038.065 4615592.419 18821606.812 10 0 59310 19800.00000 0 14328572.020 5344580.540 20448881.745 10 0 59310 20700.00000 0 11918875.039 6302783.769 21680254.802 10 0 59310 21600.00000 0 9469991.292 7485185.946 22491700.133 10 0 59310 22500.00000 0 7047136.092 8874733.050 22867281.016 10 0 59310 23400.00000 0 4712173.493 10442856.236 22799471.943 10 0 59310 24300.00000 0 2521241.706 12150491.484 22289322.051 10 0 59310 25200.00000 0 522624.218 13949555.995 21346455.477 10 0 59310 26100.00000 0 -1245045.102 15784822.293 19988907.026 10 0 59310 27000.00000 0 -2754168.050 17596113.991 18242794.523 10 0 59310 27900.00000 0 -3989101.045 19320733.171 16141832.213 10 0 59310 28800.00000 0 -4946567.788 20896018.719 13726692.862 10 0 59310 29700.00000 0 -5635547.662 22261928.677 11044229.358 10 0 59310 30600.00000 0 -6076643.930 23363537.699 8146569.767 10 0 59310 31500.00000 0 -6300957.993 24153343.383 5090102.927 10 0 59310 32400.00000 0 -6348517.343 24593282.770 1934374.352 10 0 59310 33300.00000 0 -6266324.352 24656372.009 -1259085.398 10 0 59310 34200.00000 0 -6106109.648 24327898.073 -4427975.714 10 0 59310 35100.00000 0 -5921887.064 23606110.430 -7510458.975 10 0 59310 36000.00000 0 -5767415.894 22502382.151 -10446385.626 10 0 59310 36900.00000 0 -5693680.406 21040832.868 -13178485.341 10 0 59310 37800.00000 0 -5746495.780 19257429.332 -15653499.173 10 0 59310 38700.00000 0 -5964344.018 17198601.834 -17823229.129 10 0 59310 39600.00000 0 -6376533.137 14919435.653 -19645483.518 10 0 59310 40500.00000 0 -7001758.680 12481514.637 -21084899.192 10 0 59310 41400.00000 0 -7847128.918 9950508.553 -22113624.693 10 0 59310 42300.00000 0 -8907694.892 7393606.380 -22711851.552 10 0 59310 43200.00000 0 -10166504.649 4876903.462 -22868184.459 10 0 59310 44100.00000 0 -11595178.652 2462851.743 -22579844.468 10 0 59310 45000.00000 0 -13154981.184 207878.944 -21852702.824 10 0 59310 45900.00000 0 -14798341.833 -1839725.338 -20701146.353 10 0 59310 46800.00000 0 -16470762.461 -3641570.430 -19147778.564 10 0 59310 47700.00000 0 -18113029.153 -5170501.274 -17222963.589 10 0 59310 48600.00000 0 -19663636.316 -6411458.117 -14964222.933 10 0 59310 49500.00000 0 -21061321.651 -7361826.361 -12415497.469 10 0 59310 50400.00000 0 -22247606.369 -8031264.868 -9626289.560 10 0 59310 51300.00000 0 -23169235.219 -8441022.704 -6650702.099 10 0 59310 52200.00000 0 -23780415.274 -8622775.342 -3546392.950 10 0 59310 53100.00000 0 -24044760.961 -8617030.879 -373464.817 10 0 59310 54000.00000 0 -23936865.074 -8471174.531 2806688.616 10 0 59310 54900.00000 0 -23443431.057 -8237234.165 5932558.715 10 0 59310 55800.00000 0 -22563919.901 -7969460.944 8943698.193 10 0 59310 56700.00000 0 -21310684.930 -7721826.535 11781876.056 10 0 59310 57600.00000 0 -19708588.671 -7545541.515 14392190.031 10 0 59310 58500.00000 0 -17794117.185 -7486698.675 16724116.099 10 0 59310 59400.00000 0 -15614027.618 -7584139.642 18732476.034 10 0 59310 60300.00000 0 -13223583.714 -7867634.170 20378305.311 10 0 59310 61200.00000 0 -10684450.863 -8356448.614 21629605.321 10 0 59310 62100.00000 0 -8062336.116 -9058364.326 22461965.947 10 0 59310 63000.00000 0 -5424469.059 -9969188.370 22859046.536 10 0 59310 63900.00000 0 -2837026.331 -11072778.839 22812905.635 10 0 59310 64800.00000 0 -362605.036 -12341585.966 22324172.358 10 0 59310 65700.00000 0 1942151.228 -13737688.898 21402054.794 10 0 59310 66600.00000 0 4028675.676 -15214287.284 20064183.755 10 0 59310 67500.00000 0 5858262.867 -16717587.571 18336293.014 10 0 59310 68400.00000 0 7403439.864 -18189006.956 16251740.294 10 0 59310 69300.00000 0 8648866.135 -19567603.840 13850876.496 10 0 59310 70200.00000 0 9591723.835 -20792633.353 11180273.799 10 0 59310 71100.00000 0 10241581.411 -21806120.340 8291826.456 10 0 59310 72000.00000 0 10619735.701 -22555340.519 5241741.233 10 0 59310 72900.00000 0 10758060.183 -22995103.743 2089437.143 10 0 59310 73800.00000 0 10697408.328 -23089741.040 -1103623.485 10 0 59310 74700.00000 0 10485640.505 -22814709.402 -4275148.510 10 0 59310 75600.00000 0 10175359.423 -22157744.445 -7363248.767 10 0 59310 76500.00000 0 9821451.961 -21119510.481 -10307664.181 10 0 59310 77400.00000 0 9478543.753 -19713719.239 -13050957.195 10 0 59310 78300.00000 0 9198476.666 -17966711.513 -15539648.377 10 0 59310 79200.00000 0 9027918.204 -15916519.242 -17725270.551 10 0 59310 80100.00000 0 9006205.814 -13611447.931 -19565319.660 10 0 59310 81000.00000 0 9163518.581 -11108239.804 -21024083.379 10 0 59310 81900.00000 0 9519454.288 -8469895.713 -22073331.328 10 0 59310 82800.00000 0 10082071.983 -5763248.048 -22692853.962 10 0 59310 83700.00000 0 10847439.941 -3056386.859 -22870840.716 10 0 59310 84600.00000 0 11799707.202 -416046.896 -22604091.380 10 0 59310 85500.00000 0 12911694.470 2094935.635 -21898058.137 10 0 59311 0.00000 0 14145978.252 4419991.593 -20766719.084 10 0 59311 900.00000 0 15456421.692 6510915.562 -19232287.017 10 0 59311 1800.00000 0 16790086.447 8329605.726 -17324760.986 10 0 59311 2700.00000 0 18089445.267 9849376.198 -15081329.763 10 0 59311 3600.00000 0 19294801.881 11055791.270 -12545640.110 10 0 59311 4500.00000 0 20346816.948 11946988.555 -9766944.354 10 0 59311 5400.00000 0 21189034.676 12533481.014 -6799144.058 10 0 59311 6300.00000 0 21770304.979 12837448.542 -3699748.183 10 0 59311 7200.00000 0 22047000.579 12891550.895 -528765.694 10 0 59311 8100.00000 0 21984937.162 12737313.371 2652446.569 10 0 59311 9000.00000 0 21560917.065 12423153.950 5782359.261 10 0 59311 9900.00000 0 20763832.508 12002135.147 8800447.219 10 0 59311 10800.00000 0 19595282.548 11529534.925 11648345.885 10 0 59311 11700.00000 0 18069677.800 11060338.229 14270966.245 10 0 59311 12600.00000 0 16213827.929 10646753.806 16617547.866 10 0 59311 13500.00000 0 14066027.981 10335859.821 18642630.879 10 0 59311 14400.00000 0 11674679.934 10167476.502 20306929.160 10 0 59311 15300.00000 0 9096504.923 10172354.734 21578088.580 10 0 59311 16200.00000 0 6394418.172 10370756.703 22431316.249 10 0 59311 17100.00000 0 3635152.539 10771488.771 22849868.691 10 0 59311 18000.00000 0 886727.172 11371428.287 22825389.193 10 0 59311 18900.00000 0 -1784135.673 12155565.889 22358087.044 10 0 59311 19800.00000 0 -4314540.036 13097563.623 21456754.003 10 0 59311 20700.00000 0 -6647787.767 14160807.755 20138616.083 10 0 59311 21600.00000 0 -8735494.145 15299914.387 18429021.710 10 0 59311 22500.00000 0 -10539359.484 16462626.727 16360970.351 10 0 59311 23400.00000 0 -12032522.342 17592025.805 13974488.929 10 0 59311 24300.00000 0 -13200437.072 18628962.563 11315866.508 10 0 59311 25200.00000 0 -14041238.159 19514609.070 8436760.925 10 0 59311 26100.00000 0 -14565575.257 20193020.653 5393194.146 10 0 59311 27000.00000 0 -14795925.493 20613599.513 2244455.891 10 0 59311 27900.00000 0 -14765412.058 20733353.903 -948062.555 10 0 59311 28800.00000 0 -14516179.502 20518855.175 -4122080.314 10 0 59311 29700.00000 0 -14097395.602 19947807.694 -7215659.417 10 0 59311 30600.00000 0 -13562966.012 19010163.102 -10168431.911 10 0 59311 31500.00000 0 -12969060.446 17708730.159 -12922795.498 10 0 59311 32400.00000 0 -12371557.383 16059253.148 -15425052.560 10 0 59311 33300.00000 0 -11823517.590 14089954.907 -17626468.778 10 0 59311 34200.00000 0 -11372795.272 11840563.710 -19484229.511 10 0 59311 35100.00000 0 -11059889.266 9360865.291 -20962274.754 10 0 59311 36000.00000 0 -10916125.877 6708841.506 -22031996.399 10 0 59311 36900.00000 0 -10962250.257 3948474.475 -22672784.721 10 0 59311 37800.00000 0 -11207485.237 1147308.800 -22872414.480 10 0 59311 38700.00000 0 -11649096.300 -1626125.983 -22627264.451 10 0 59311 39600.00000 0 -12272479.628 -4304925.110 -21942367.654 10 0 59311 40500.00000 0 -13051767.927 -6826342.370 -20831292.921 10 0 59311 41400.00000 0 -13950926.995 -9134143.649 -19315861.634 10 0 59311 42300.00000 0 -14925295.497 -11180683.936 -17425706.498 10 0 59311 43200.00000 0 -15923502.127 -12928623.601 -15197682.058 10 0 59311 44100.00000 0 -16889678.916 -14352215.098 -12675139.188 10 0 59311 45000.00000 0 -17765877.378 -15438109.162 -9907078.190 10 0 59311 45900.00000 0 -18494586.158 -16185649.721 -6947197.137 10 0 59311 46800.00000 0 -19021244.937 -16606647.834 -3852853.797 10 0 59311 47700.00000 0 -19296649.735 -16724646.374 -683961.001 10 0 59311 48600.00000 0 -19279149.538 -16573708.059 2498163.750 10 0 59311 49500.00000 0 -18936542.901 -16196778.929 5631972.968 10 0 59311 50400.00000 0 -18247595.663 -15643696.506 8656866.270 10 0 59311 51300.00000 0 -17203116.574 -14968926.382 11514348.213 10 0 59311 52200.00000 0 -15806545.699 -14229121.831 14149145.699 10 0 59311 53100.00000 0 -14074030.499 -13480608.177 16510264.440 10 0 59311 54000.00000 0 -12033985.286 -12776896.572 18551965.289 10 0 59311 54900.00000 0 -9726150.790 -12166330.578 20234642.618 10 0 59311 55800.00000 0 -7200190.999 -11689963.541 21525588.537 10 0 59311 56700.00000 0 -4513883.243 -11379755.320 22399628.755 10 0 59311 57600.00000 0 -1730974.140 -11257164.037 22839617.934 10 0 59311 58500.00000 0 1081212.002 -11332192.434 22836784.649 10 0 59311 59400.00000 0 3854315.407 -11602929.921 22390918.538 10 0 59311 60300.00000 0 6521530.148 -12055611.063 21510394.833 10 0 59311 61200.00000 0 9020134.353 -12665189.925 20212034.231 10 0 59311 62100.00000 0 11293857.037 -13396408.189 18520798.996 10 0 59311 63000.00000 0 13294983.331 -14205314.055 16469329.220 10 0 59311 63900.00000 0 14986109.971 -15041169.652 14097326.428 10 0 59311 64800.00000 0 16341477.095 -15848667.699 11450794.848 10 0 59311 65700.00000 0 17347819.694 -16570364.387 8581153.859 10 0 59311 66600.00000 0 18004702.008 -17149225.447 5544238.293 10 0 59311 67500.00000 0 18324320.115 -17531176.788 2399205.973 10 0 59311 68400.00000 0 18330780.648 -17667550.164 -792625.654 10 0 59311 69300.00000 0 18058886.223 -17517318.260 -3968989.872 10 0 59311 70200.00000 0 17552479.592 -17049022.284 -7067902.836 10 0 59311 71100.00000 0 16862417.822 -16242308.133 -10028891.582 10 0 59311 72000.00000 0 16044263.945 -15089004.092 -12794191.821 10 0 59311 72900.00000 0 15155795.741 -13593692.897 -15309890.322 10 0 59311 73800.00000 0 14254439.142 -11773752.857 -17526988.005 10 0 59311 74700.00000 0 13394736.698 -9658865.831 -19402361.764 10 0 59311 75600.00000 0 12625959.609 -7290012.748 -20899605.749 10 0 59311 76500.00000 0 11989965.101 -4717999.230 -21989735.646 10 0 59311 77400.00000 0 11519389.868 -2001573.870 -22651742.722 10 0 59311 78300.00000 0 11236255.315 794781.485 -22872987.863 10 0 59311 79200.00000 0 11151042.357 3603296.561 -22649429.261 10 0 59311 80100.00000 0 11262273.199 6355490.384 -21985680.843 10 0 59311 81000.00000 0 11556615.832 8984774.745 -20894901.934 10 0 59311 81900.00000 0 12009504.908 11428975.831 -19398521.827 10 0 59311 82800.00000 0 12586250.974 13632670.321 -17525805.985 10 0 59311 83700.00000 0 13243589.781 15549240.591 -15313273.469 10 0 59311 84600.00000 0 13931605.251 17142565.748 -12803977.675 10 0 59311 85500.00000 0 14595944.425 18388280.458 -10046664.958 10 0 59312 0.00000 0 15180230.920 19274551.801 -7094827.717 10 0 59312 900.00000 0 15628575.314 19802344.138 -4005669.848 10 0 59312 1800.00000 0 15888077.955 19985163.681 -839005.308 10 0 59312 2700.00000 0 15911218.521 19848294.512 2343890.725 10 0 59312 3600.00000 0 15658033.980 19427560.544 5481455.698 10 0 59312 4500.00000 0 15097993.213 18767665.323 8513017.074 10 0 59312 5400.00000 0 14211490.536 17920179.959 11379951.515 10 0 59312 6300.00000 0 12990895.430 16941263.173 14026804.672 10 0 59312 7200.00000 0 11441114.164 15889208.394 16402351.033 10 0 59312 8100.00000 0 9579638.880 14821919.766 18460574.556 10 0 59312 9000.00000 0 7436080.524 13794421.738 20161552.217 10 0 59312 9900.00000 0 5051203.154 12856505.537 21472224.153 10 0 59312 10800.00000 0 2475497.381 12050610.251 22367036.102 10 0 59312 11700.00000 0 -232650.433 11410026.812 22828441.903 10 0 59312 12600.00000 0 -3009119.806 10957500.068 22847256.004 10 0 59312 13500.00000 0 -5786461.480 10704287.993 22422848.491 10 0 59312 14400.00000 0 -8496448.894 10649718.448 21563177.658 10 0 59312 15300.00000 0 -11072671.554 10781263.445 20284657.929 10 0 59312 16200.00000 0 -13453063.712 11075129.423 18611863.932 10 0 59312 17100.00000 0 -15582263.717 11497340.392 16577074.441 10 0 59312 18000.00000 0 -17413705.546 12005269.905 14219663.242 10 0 59312 18900.00000 0 -18911354.623 12549558.421 11585347.075 10 0 59312 19800.00000 0 -20051014.376 13076335.796 8725304.020 10 0 59312 20700.00000 0 -20821147.543 13529654.898 5695178.833 10 0 59312 21600.00000 0 -21223176.740 13854032.689 2553994.499 10 0 59312 22500.00000 0 -21271250.849 13996989.745 -637008.269 10 0 59312 23400.00000 0 -20991486.722 13911478.685 -3815579.726 10 0 59312 24300.00000 0 -20420718.470 13558096.338 -6919692.854 10 0 59312 25200.00000 0 -19604808.008 12906983.481 -9888772.239 10 0 59312 26100.00000 0 -18596589.627 11939329.440 -12664893.994 10 0 59312 27000.00000 0 -17453537.248 10648415.921 -15193931.461 10 0 59312 27900.00000 0 -16235254.909 9040154.460 -17426622.708 10 0 59312 28800.00000 0 -15000898.390 7133093.903 -19319537.784 10 0 59312 29700.00000 0 -13806638.469 4957897.219 -20835926.266 10 0 59312 30600.00000 0 -12703273.893 2556309.682 -21946428.549 10 0 59312 31500.00000 0 -11734095.187 -20337.767 -22629637.433 10 0 59312 32400.00000 0 -10933089.014 -2713026.743 -22872500.113 10 0 59312 33300.00000 0 -10323557.690 -5457271.317 -22670554.028 10 0 59312 34200.00000 0 -9917210.403 -8185566.456 -22027993.495 10 0 59312 35100.00000 0 -9713762.319 -10829962.940 -20957567.492 10 0 59312 36000.00000 0 -9701056.149 -13324661.950 -19480312.071 10 0 59312 36900.00000 0 -9855698.782 -15608522.122 -17625124.036 10 0 59312 37800.00000 0 -10144184.044 -17627376.180 -15428185.309 10 0 59312 38700.00000 0 -10524452.518 -19336062.569 -12932249.981 10 0 59312 39600.00000 0 -10947821.454 -20700089.529 -10185808.500 10 0 59312 40500.00000 0 -11361202.672 -21696864.677 -7242145.422 10 0 59312 41400.00000 0 -11709514.717 -22316441.162 -4158308.932 10 0 59312 42300.00000 0 -11938187.863 -22561751.448 -994011.855 10 0 59312 43200.00000 0 -11995656.924 -22448320.913 2189515.122 10 0 59312 44100.00000 0 -11835737.642 -22003474.756 5330696.615 10 0 59312 45000.00000 0 -11419787.376 -21265072.404 8368790.214 10 0 59312 45900.00000 0 -10718559.842 -20279822.841 11245047.018 10 0 59312 46800.00000 0 -9713676.281 -19101251.297 13903833.771 10 0 59312 47700.00000 0 -8398651.175 -17787401.836 16293696.023 10 0 59312 48600.00000 0 -6779428.867 -16398371.060 18368343.012 10 0 59312 49500.00000 0 -4874407.292 -14993774.918 20087536.293 10 0 59312 50400.00000 0 -2713946.041 -13630253.342 21417865.734 10 0 59312 51300.00000 0 -339376.891 -12359115.918 22333398.493 10 0 59312 52200.00000 0 2198444.722 -11224226.090 22816188.610 10 0 59312 53100.00000 0 4840989.825 -10260211.926 22856637.069 10 0 59312 54000.00000 0 7524233.588 -9491078.184 22453694.694 10 0 59312 54900.00000 0 10181072.679 -8929278.190 21614902.771 10 0 59312 55800.00000 0 12743883.890 -8575285.303 20356269.067 10 0 59312 56700.00000 0 15147119.224 -8417683.092 18701979.862 10 0 59312 57600.00000 0 17329830.312 -8433771.790 16683951.593 10 0 59312 58500.00000 0 19238017.031 -8590666.881 14341228.974 10 0 59312 59400.00000 0 20826701.848 -8846844.605 11719239.608 10 0 59312 60300.00000 0 22061642.171 -9154069.866 8868918.294 10 0 59312 61200.00000 0 22920607.635 -9459625.189 5845717.406 10 0 59312 62100.00000 0 23394167.395 -9708745.898 2708522.484 10 0 59312 63000.00000 0 23485953.140 -9847157.153 -481505.333 10 0 59312 63900.00000 0 23212385.929 -9823603.575 -3662136.262 10 0 59312 64800.00000 0 22601878.122 -9592262.008 -6771303.141 10 0 59312 65700.00000 0 21693544.394 -9114932.688 -9748331.077 10 0 59312 66600.00000 0 20535477.209 -8362913.576 -12535139.406 10 0 59312 67500.00000 0 19182660.980 -7318476.261 -15077390.645 10 0 59312 68400.00000 0 17694614.706 -5975879.208 -17325562.361 10 0 59312 69300.00000 0 16132864.388 -4341874.304 -19235919.820 10 0 59312 70200.00000 0 14558353.482 -2435684.581 -20771369.801 10 0 59312 71100.00000 0 13028901.718 -288453.843 -21902178.868 10 0 59312 72000.00000 0 11596819.987 2057808.440 -22606542.508 10 0 59312 72900.00000 0 10306781.595 4551742.229 -22870995.045 10 0 59312 73800.00000 0 9194038.542 7134548.087 -22690653.630 10 0 59312 74700.00000 0 8283056.384 9742213.925 -22069293.099 10 0 59312 75600.00000 0 7586622.911 12307964.193 -21019251.851 10 0 59312 76500.00000 0 7105465.634 14764829.494 -19561172.124 10 0 59312 77400.00000 0 6828391.579 17048230.034 -17723581.141 10 0 59312 78300.00000 0 6732940.862 19098466.291 -15542322.413 10 0 59312 79200.00000 0 6786524.262 20863014.618 -13059849.112 10 0 59312 80100.00000 0 6947994.988 22298533.833 -10324393.813 10 0 59312 81000.00000 0 7169587.061 23372501.194 -7389031.001 10 0 59312 81900.00000 0 7399137.797 24064411.653 -4310650.420 10 0 59312 82800.00000 0 7582500.486 24366492.350 -1148860.973 10 0 59312 83700.00000 0 7666045.713 24283904.377 2035154.192 10 0 59312 84600.00000 0 7599146.449 23834424.908 5179809.991 10 0 59312 85500.00000 0 7336542.913 23047624.017 8224297.294 10 0 59313 0.00000 0 6840488.372 21963571.189 11109744.649 10 0 59313 900.00000 0 6082585.665 20631125.473 13780342.920 10 0 59313 1800.00000 0 5045238.707 19105880.543 16184411.390 10 0 59313 2700.00000 0 3722655.551 17447849.312 18275387.026 10 0 59313 3600.00000 0 2121362.201 15718983.709 20012718.134 10 0 59313 4500.00000 0 260202.696 13980631.854 21362646.158 10 0 59313 5400.00000 0 -1830176.060 12291037.291 22298861.149 10 0 59313 6300.00000 0 -4108336.025 10702983.460 22803018.406 10 0 59313 7200.00000 0 -6523516.903 9261680.805 22865106.052 10 0 59313 8100.00000 0 -9017504.052 8002984.213 22483655.741 10 0 59313 9000.00000 0 -11526820.499 6952015.149 21665791.309 10 0 59313 9900.00000 0 -13985154.251 6122246.546 20427112.854 10 0 59313 10800.00000 0 -16325921.797 5515089.498 18791416.745 10 0 59313 11700.00000 0 -18484862.256 5120000.067 16790254.999 10 0 59313 12600.00000 0 -20402554.385 4915102.892 14462340.721 10 0 59313 13500.00000 0 -22026751.115 4868306.278 11852809.478 10 0 59313 14400.00000 0 -23314433.089 4938862.480 9012349.640 10 0 59313 15300.00000 0 -24233493.768 5079307.530 5996217.919 10 0 59313 16200.00000 0 -24763983.858 5237698.187 2863159.110 10 0 59313 17100.00000 0 -24898861.200 5360050.319 -325748.463 10 0 59313 18000.00000 0 -24644213.262 5392873.794 -3508298.101 10 0 59313 18900.00000 0 -24018942.058 5285694.328 -6622385.452 10 0 59313 19800.00000 0 -23053924.541 4993452.950 -9607238.911 10 0 59313 20700.00000 0 -21790684.311 4478678.902 -12404623.584 10 0 59313 21600.00000 0 -20279631.648 3713341.551 -14959993.434 10 0 59313 22500.00000 0 -18577947.516 2680300.882 -17223567.483 10 0 59313 23400.00000 0 -16747202.396 1374293.732 -19151307.790 10 0 59313 24300.00000 0 -14850811.869 -197586.881 -20705779.476 10 0 59313 25200.00000 0 -12951437.357 -2015940.036 -21856875.943 10 0 59313 26100.00000 0 -11108442.230 -4049630.669 -22582395.543 10 0 59313 27000.00000 0 -9375510.321 -6256864.378 -22868459.426 10 0 59313 27900.00000 0 -7798526.294 -8586717.684 -22709763.721 10 0 59313 28800.00000 0 -6413805.547 -10981058.998 -22109662.640 10 0 59313 29700.00000 0 -5246745.955 -13376779.604 -21080082.529 10 0 59313 30600.00000 0 -4310955.510 -15708241.312 -19641270.052 10 0 59313 31500.00000 0 -3607889.728 -17909838.751 -17821380.874 10 0 59313 32400.00000 0 -3127011.134 -19918570.101 -15655917.979 10 0 59313 33300.00000 0 -2846461.334 -21676510.077 -13187031.398 10 0 59313 34200.00000 0 -2734215.039 -23133083.351 -10462693.598 10 0 59313 35100.00000 0 -2749665.477 -24247045.277 -7535766.761 10 0 59313 36000.00000 0 -2845573.055 -24988089.085 -4462980.015 10 0 59313 36900.00000 0 -2970294.372 -25338014.222 -1303836.221 10 0 59313 37800.00000 0 -3070197.402 -25291408.780 1880531.057 10 0 59313 38700.00000 0 -3092161.245 -24855818.926 5028529.050 10 0 59313 39600.00000 0 -2986055.649 -24051399.273 8079283.878 10 0 59313 40500.00000 0 -2707096.495 -22910059.397 10973803.600 10 0 59313 41400.00000 0 -2217978.713 -21474142.199 13656104.887 10 0 59313 42300.00000 0 -1490697.332 -19794688.865 16074282.682 10 0 59313 43200.00000 0 -507980.098 -17929361.920 18181503.417 10 0 59313 44100.00000 0 735728.982 -15940111.732 19936903.678 10 0 59313 45000.00000 0 2233777.524 -13890682.278 21306377.780 10 0 59313 45900.00000 0 3967326.445 -11844058.509 22263239.685 10 0 59313 46800.00000 0 5905886.840 -9859960.127 22788746.663 10 0 59313 47700.00000 0 8008352.340 -7992484.959 22872474.351 10 0 59313 48600.00000 0 10224486.823 -6287999.180 22512535.293 10 0 59313 49500.00000 0 12496808.433 -4783361.831 21715635.622 10 0 59313 50400.00000 0 14762793.999 -3504557.750 20496967.234 10 0 59313 51300.00000 0 16957314.211 -2465796.399 18879935.785 10 0 59313 52200.00000 0 19015199.582 -1669114.967 16895727.813 10 0 59313 53100.00000 0 20873830.808 -1104503.358 14582723.503 10 0 59313 54000.00000 0 22475645.334 -750546.603 11985764.813 10 0 59313 54900.00000 0 23770454.495 -575558.367 9155291.842 10 0 59313 55800.00000 0 24717472.780 -539158.080 6146363.533 10 0 59313 56700.00000 0 25286972.354 -594224.814 3017581.560 10 0 59313 57600.00000 0 25461491.494 -689144.488 -170061.153 10 0 59313 58500.00000 0 25236544.349 -770253.806 -3354383.730 10 0 59313 59400.00000 0 24620800.828 -784375.457 -6473247.433 10 0 59313 60300.00000 0 23635728.214 -681334.761 -9465786.703 10 0 59313 61200.00000 0 22314709.453 -416348.621 -12273615.047 10 0 59313 62100.00000 0 20701675.748 47816.898 -14841980.306 10 0 59313 63000.00000 0 18849312.063 739013.940 -17120845.147 10 0 59313 63900.00000 0 16816912.484 1674284.435 -19065870.344 10 0 59313 64800.00000 0 14667977.177 2858897.473 -20639281.024 10 0 59313 65700.00000 0 12467653.292 4285893.780 -21810598.841 10 0 59313 66600.00000 0 10280128.371 5936156.562 -22557226.168 10 0 59313 67500.00000 0 8166086.026 7779005.469 -22864871.875 10 0 59313 68400.00000 0 6180330.329 9773288.162 -22727811.677 10 0 59313 69300.00000 0 4369677.482 11868922.972 -22148979.455 10 0 59313 70200.00000 0 2771201.361 14008827.379 -21139889.451 10 0 59313 71100.00000 0 1410904.041 16131151.246 -19720392.356 10 0 59313 72000.00000 0 302864.301 18171721.196 -17918271.501 10 0 59313 72900.00000 0 -551103.275 20066594.301 -15768688.186 10 0 59313 73800.00000 0 -1161267.335 21754615.053 -13313487.791 10 0 59313 74700.00000 0 -1549287.330 23179869.773 -10600380.796 10 0 59313 75600.00000 0 -1747041.199 24293937.301 -7682014.878 10 0 59313 76500.00000 0 -1795024.392 25057843.435 -4614956.052 10 0 59313 77400.00000 0 -1740388.936 25443639.035 -1458598.393 10 0 59313 78300.00000 0 -1634705.862 25435537.353 1725977.059 10 0 59313 79200.00000 0 -1531545.431 25030564.388 4877172.886 10 0 59313 80100.00000 0 -1483976.835 24238696.052 7934053.551 10 0 59313 81000.00000 0 -1542092.127 23082476.989 10837509.611 10 0 59313 81900.00000 0 -1750657.993 21596137.019 13531386.601 10 0 59313 82800.00000 0 -2146993.539 19824241.639 15963557.867 10 0 59313 83700.00000 0 -2759163.052 17819931.967 18086921.875 10 0 59313 84600.00000 0 -3604559.718 15642826.095 19860305.826 10 0 59313 85500.00000 0 -4688940.397 13356667.688 21249258.958 99